GW4005 Weather Reports


time (UTC)temp
F
wind
direction
speed
knots
gust
knots
rain 1hr
in
rain 24hr
in
rain mn
in
humidity
%
barometer
mb
20260505041532 47 189 4.3 12.2 0.00 0.00 0.00 77 1009.5
20260505041014 48 127 4.3 12.2 0.00 0.00 0.00 77 1009.5
20260505040515 48 220 5.2 9.6 0.00 0.00 0.00 76 1009.5
20260505040040 49 162 4.3 16.5 0.00 0.00 0.00 76 1009.5
20260505035514 49 131 4.3 16.5 0.00 0.00 0.00 75 1009.4
20260505035014 49 166 5.2 11.3 0.00 0.00 0.00 76 1009.5
20260505034539 49 179 5.2 10.4 0.00 0.00 0.00 76 1009.5
20260505034014 49 192 4.3 11.3 0.00 0.00 0.00 77 1009.3
20260505033515 48 158 3.5 11.3 0.00 0.00 0.00 78 1009.3
20260505033033 48 171 3.5 10.4 0.00 0.00 0.00 79 1009.3
20260505032517 47 214 3.5 9.6 0.00 0.00 0.00 79 1009.2
20260505032018 47 191 4.3 10.4 0.00 0.00 0.00 79 1009.3
20260505031533 47 198 4.3 10.4 0.00 0.00 0.00 80 1009.2
20260505031014 47 181 3.5 10.4 0.00 0.00 0.00 80 1009.1
20260505030517 47 214 3.5 10.4 0.00 0.00 0.00 81 1009.0
20260505030035 47 194 2.6 10.4 0.00 0.00 0.00 81 1008.9
20260505025518 46 195 4.3 9.6 0.00 0.00 0.00 81 1008.9
20260505025014 47 185 4.3 10.4 0.00 0.00 0.00 80 1008.9
20260505024532 46 192 4.3 10.4 0.00 0.00 0.00 81 1008.8
20260505024014 46 192 4.3 9.6 0.00 0.00 0.00 82 1008.8
20260505023515 46 158 4.3 10.4 0.00 0.00 0.00 82 1008.9
20260505023035 46 198 5.2 13.0 0.00 0.00 0.00 82 1008.8
20260505022514 46 166 5.2 13.0 0.00 0.00 0.00 81 1008.8
20260505022021 46 208 4.3 13.0 0.00 0.00 0.00 81 1008.7
20260505021535 46 220 4.3 13.0 0.00 0.00 0.00 80 1008.8
20260505021021 46 146 5.2 13.0 0.00 0.00 0.00 80 1008.7
20260505020514 46 212 6.1 14.8 0.00 0.00 0.00 80 1008.7
20260505020039 47 208 5.2 14.8 0.00 0.00 0.00 80 1008.8
20260505015514 47 197 4.3 17.4 0.00 0.00 0.00 79 1008.5
20260505015016 47 236 6.1 17.4 0.00 0.00 0.00 79 1008.6
20260505014534 47 212 6.1 13.0 0.00 0.00 0.00 79 1008.6
20260505014016 47 178 6.1 13.0 0.00 0.00 0.00 79 1008.6
20260505013516 47 208 7.0 12.2 0.00 0.00 0.00 79 1008.6
20260505013033 47 185 6.1 11.3 0.00 0.00 0.00 79 1008.4
20260505012518 47 212 3.5 12.2 0.00 0.00 0.00 79 1008.3
20260505012016 46 166 5.2 13.9 0.00 0.00 0.00 78 1008.1
20260505011537 47 175 6.1 13.9 0.00 0.00 0.00 78 1008.0
20260505011017 47 187 6.1 16.5 0.00 0.00 0.00 77 1008.0
20260505010514 47 126 7.0 16.5 0.00 0.00 0.00 77 1008.0
20260505010031 48 193 7.0 16.5 0.00 0.00 0.00 76 1008.0
20260505005518 48 225 7.0 13.9 0.00 0.01 0.00 76 1007.8
20260505005014 48 182 5.2 14.8 0.00 0.01 0.00 76 1007.7
20260505004530 48 225 6.1 14.8 0.00 0.01 0.00 77 1007.5
20260505004014 47 220 7.0 14.8 0.00 0.01 0.00 78 1007.3
20260505003518 47 199 5.2 13.0 0.00 0.01 0.00 77 1007.3
20260505003034 47 173 5.2 13.0 0.00 0.01 0.00 77 1007.4
20260505002515 47 201 4.3 11.3 0.00 0.01 0.00 76 1007.4
20260505002018 48 146 2.6 10.4 0.00 0.01 0.00 75 1007.4
20260505001533 48 171 4.3 12.2 0.00 0.01 0.00 74 1007.2
20260505001014 49 173 5.2 12.2 0.00 0.01 0.00 73 1007.0
20260505000514 50 183 5.2 13.0 0.00 0.01 0.00 71 1007.0
20260505000043 50 212 4.3 13.0 0.00 0.01 0.00 70 1006.8
20260504235514 51 243 6.1 13.9 0.00 0.07 0.00 69 1006.8
20260504235016 51 197 6.1 13.9 0.00 0.07 0.00 67 1006.8
20260504234536 51 220 4.3 12.2 0.00 0.07 0.00 67 1006.7
20260504234014 51 208 7.0 12.2 0.00 0.07 0.00 66 1006.6
20260504233517 51 156 3.5 13.0 0.00 0.07 0.00 66 1006.3
20260504233035 51 212 5.2 13.9 0.00 0.07 0.00 66 1006.2
20260504232516 51 198 5.2 14.8 0.00 0.07 0.00 67 1006.0
20260504232015 52 193 6.1 14.8 0.00 0.07 0.00 67 1005.9
20260504231531 52 212 6.1 14.8 0.00 0.07 0.00 67 1005.8
20260504231019 52 166 5.2 10.4 0.00 0.07 0.00 67 1005.8
20260504230514 52 171 3.5 11.3 0.00 0.07 0.00 66 1005.7
20260504230033 52 195 4.3 13.9 0.00 0.07 0.00 66 1005.6
20260504225517 53 164 5.2 13.9 0.00 0.20 0.00 66 1005.4
20260504225015 53 185 5.2 14.8 0.00 0.20 0.00 65 1005.3
20260504224530 53 195 7.0 14.8 0.00 0.20 0.00 64 1005.3
20260504224018 53 198 7.0 14.8 0.00 0.20 0.00 64 1005.2
20260504223514 53 222 6.1 14.8 0.00 0.20 0.00 64 1005.2
20260504223032 53 209 6.1 14.8 0.00 0.20 0.00 64 1005.2
20260504222515 52 211 6.1 16.5 0.00 0.20 0.00 65 1005.2
20260504222014 52 184 6.1 19.1 0.00 0.20 0.00 65 1005.1
20260504221536 51 243 7.8 19.1 0.00 0.20 0.00 66 1005.1
20260504221014 51 183 7.0 15.6 0.00 0.20 0.00 67 1005.2
20260504220514 50 205 7.0 16.5 0.00 0.20 0.00 69 1005.1
20260504220045 50 253 6.1 16.5 0.00 0.20 0.00 70 1005.2
20260504215518 49 167 7.8 16.5 0.00 0.31 0.00 71 1005.1
20260504215017 49 178 6.1 14.8 0.00 0.31 0.00 72 1005.2
20260504214536 49 202 6.1 14.8 0.00 0.31 0.00 72 1005.3
20260504214014 49 199 5.2 13.0 0.00 0.31 0.00 71 1005.4
20260504213514 49 168 6.1 14.8 0.00 0.31 0.00 71 1005.4
20260504213041 50 191 6.1 16.5 0.00 0.31 0.00 70 1005.4
20260504212514 50 181 7.0 16.5 0.00 0.31 0.00 69 1005.3
20260504212017 50 236 7.0 18.2 0.00 0.31 0.00 67 1005.2
20260504211539 51 199 8.7 19.1 0.00 0.31 0.00 66 1005.4
20260504211014 51 210 7.8 20.0 0.00 0.31 0.00 65 1005.4
20260504210516 51 162 7.8 20.0 0.00 0.31 0.00 65 1005.5
20260504210033 51 171 7.8 25.2 0.00 0.31 0.00 65 1005.2
20260504205515 51 247 9.6 25.2 0.00 0.38 0.00 65 1005.1
20260504205014 51 238 10.4 23.5 0.00 0.38 0.00 65 1005.1
20260504204540 51 135 8.7 23.5 0.00 0.38 0.00 67 1005.1
20260504204015 51 199 9.6 26.9 0.00 0.38 0.00 68 1005.0
20260504203517 50 212 11.3 26.9 0.00 0.38 0.00 69 1005.0
20260504203033 49 250 8.7 23.5 0.00 0.38 0.00 72 1005.0
20260504202516 48 203 8.7 23.5 0.00 0.38 0.00 74 1005.0
20260504202015 47 176 9.6 22.6 0.00 0.38 0.00 76 1005.1
20260504201533 48 214 10.4 21.7 0.00 0.38 0.00 74 1005.2
20260504201014 49 219 8.7 20.9 0.00 0.38 0.00 73 1005.1
20260504200514 48 198 11.3 20.9 0.00 0.38 0.00 76 1005.1
20260504200033 47 254 7.0 20.9 0.00 0.38 0.00 77 1005.0
20260504195514 48 208 6.1 17.4 0.00 0.48 0.00 76 1005.2
20260504195015 48 256 6.1 22.6 0.00 0.48 0.00 76 1005.1
20260504194532 48 256 7.8 22.6 0.00 0.48 0.00 76 1005.0
20260504194015 48 231 7.0 19.1 0.00 0.48 0.00 76 1004.9
20260504193515 47 192 8.7 15.6 0.00 0.48 0.00 75 1004.8
20260504193031 48 175 8.7 18.2 0.00 0.48 0.00 75 1004.8
20260504192514 48 218 7.0 18.2 0.00 0.48 0.00 73 1004.8
20260504192014 49 194 8.7 16.5 0.00 0.48 0.00 73 1004.7
20260504191535 50 220 7.8 16.5 0.00 0.48 0.00 72 1004.7
20260504191014 50 137 7.0 16.5 0.00 0.48 0.00 73 1004.8
20260504190518 49 233 6.1 15.6 0.00 0.48 0.00 73 1004.6
20260504190034 48 225 7.0 13.9 0.00 0.48 0.00 72 1004.7
20260504185515 48 240 7.0 17.4 0.00 0.56 0.00 72 1004.7
20260504185019 48 179 7.0 17.4 0.00 0.56 0.00 71 1004.7
20260504184530 49 216 7.0 15.6 0.00 0.56 0.00 69 1004.8
20260504184017 50 231 6.1 15.6 0.00 0.56 0.00 68 1004.8
20260504183516 50 184 7.0 16.5 0.00 0.56 0.00 68 1004.9
20260504183036 50 106 7.0 16.5 0.00 0.56 0.00 67 1004.9
20260504182514 50 258 7.8 20.0 0.00 0.56 0.00 69 1004.9
20260504182016 49 232 8.7 20.0 0.00 0.56 0.00 68 1004.9
20260504181535 50 178 7.0 20.0 0.00 0.56 0.00 68 1005.0
20260504181015 50 218 5.2 17.4 0.00 0.56 0.00 67 1005.0
20260504180514 49 249 6.1 17.4 0.00 0.56 0.00 67 1005.0
20260504180045 49 191 7.8 17.4 0.00 0.56 0.00 67 1004.9
20260504175517 49 206 6.1 16.5 0.00 0.73 0.00 69 1005.0
20260504175017 49 205 6.1 17.4 0.00 0.73 0.00 70 1005.0
20260504174531 49 187 6.1 20.0 0.00 0.73 0.00 71 1005.0
20260504174014 48 210 7.8 20.0 0.00 0.73 0.00 71 1005.1
20260504173514 48 197 8.7 17.4 0.00 0.73 0.00 71 1005.0
20260504173032 48 179 7.8 17.4 0.00 0.73 0.00 70 1005.0
20260504172514 48 215 6.1 17.4 0.00 0.73 0.00 70 1005.0
20260504172019 49 243 7.0 18.2 0.00 0.73 0.00 70 1005.0
20260504171530 48 119 7.0 19.1 0.00 0.73 0.00 68 1005.1
20260504171017 48 286 8.7 19.1 0.00 0.73 0.00 68 1005.1
20260504170515 48 200 7.0 16.5 0.00 0.73 0.00 68 1005.1
20260504151016 46 216 8.7 21.7 0.00 1.31 0.00 76 1005.6
20260504150517 46 202 7.8 17.4 0.00 1.31 0.00 76 1005.6
20260504141015 44 213 8.7 20.0 0.00 1.38 0.00 75 1005.8
20260504140516 44 200 7.0 20.0 0.00 1.38 0.00 76 1005.8
20260504130516 42 206 9.6 20.0 0.00 1.38 0.00 80 1005.1
20260504110516 40 186 7.0 20.9 0.00 1.38 0.00 86 1003.2
20260504100514 40 239 6.1 18.2 0.00 1.38 0.00 89 1002.4
20260504081609 40 320 5.2 12.2 0.00 1.38 0.00 91 999.8
20260504081015 40 197 3.5 13.0 0.00 1.38 0.00 91 999.8
20260504080514 40 198 5.2 13.0 0.00 1.38 0.00 91 999.8
20260504050515 39 307 8.7 20.0 0.00 1.38 0.00 92 997.5
20260504045515 39 283 12.2 20.9 0.00 1.38 0.00 92 997.3
20260504045015 39 288 12.2 20.0 0.00 1.38 0.00 92 997.2
20260504044537 39 279 12.2 20.9 0.00 1.38 0.00 92 997.1
20260504044017 39 283 13.0 20.9 0.00 1.38 0.00 91 997.1
20260504043515 38 333 12.2 20.9 0.00 1.38 0.00 92 996.9
20260504043041 38 288 12.2 20.9 0.00 1.38 0.00 91 996.8
20260504042516 38 306 9.6 22.6 0.00 1.38 0.00 91 996.8
20260504042017 38 328 12.2 22.6 0.00 1.38 0.00 91 996.7